RH
11 4 16 21 16 17 18 17 34 50 60 69 68 58 67 84 75 77 98 81 80 77 88 92 84 75 70 69 67 60 48 28 24 25 25 20 17 16 12 11 12 13 13 14 14 14 13 14 14
5 7 18 19 18 17 22 28 50 59 67 56 59 64 66 76 92 96 100 87 75 80 89 87 83 72 71 68 61 45 26 26 25 24 22 14 18 16 14 14 15 16 17 18 19 19 19 21 21
4 15 18 19 22 17 31 48 51 54 56 46 57 64 71 73 69 96 94 94 85 81 86 82 78 73 71 61 44 26 26 27 25 24 16 17 20 19 18 18 20 25 32 34 34 32 31 31 34
7 18 15 16 18 18 28 45 56 72 64 44 44 61 72 79 75 74 88 93 88 85 82 78 76 75 65 50 28 28 28 24 25 22 16 22 22 22 28 35 36 34 31 32 37 39 38 33 28
17 17 17 26 33 27 19 45 45 45 64 55 46 55 89 79 80 98 88 90 86 82 82 79 81 75 56 35 30 30 24 23 24 17 22 27 34 40 35 35 30 29 28 29 30 29 30 29 29
20 17 22 40 39 36 42 47 48 53 47 48 56 69 89 93 88 84 85 84 81 79 83 88 85 57 39 32 31 25 18 22 21 32 36 42 37 29 32 33 29 28 29 30 31 30 30 29 27
19 17 31 39 38 35 38 50 48 46 47 52 63 77 99 100 93 85 83 83 84 86 87 86 54 40 35 32 27 20 23 24 41 40 42 38 33 31 30 31 31 29 28 30 32 32 32 32 32
18 17 22 41 47 42 34 45 35 37 46 58 60 77 95 100 94 84 86 85 85 85 84 46 37 35 33 29 22 20 25 42 43 44 40 38 36 36 33 32 31 30 31 33 34 34 36 37 37
18 18 18 41 54 38 34 33 44 42 47 48 50 77 77 77 83 88 90 90 86 77 38 32 24 22 20 18 20 27 34 52 50 48 49 43 42 38 35 35 36 36 39 43 45 47 47 42 39
19 19 17 27 34 45 47 32 43 45 49 47 63 76 70 73 80 82 88 82 55 31 23 15 12 12 14 18 24 32 50 52 50 49 56 56 49 45 44 42 45 46 49 51 51 51 44 42 46
21 18 16 26 29 25 31 34 39 48 47 44 70 74 70 66 72 68 58 29 22 23 28 24 22 18 24 30 42 48 54 55 51 52 54 56 55 56 50 43 47 48 53 55 52 43 42 47 50
16 16 12 24 27 28 28 31 48 42 37 38 44 56 66 51 38 28 21 23 26 34 37 41 41 45 49 51 59 53 60 66 67 64 57 52 60 61 55 47 48 50 50 52 45 43 46 52 52
17 13 10 9 23 31 26 30 40 39 27 36 48 62 54 43 26 21 25 27 33 45 41 46 56 61 64 68 71 72 74 78 79 75 66 56 57 62 52 50 48 49 52 47 44 48 54 51 46
14 10 11 10 15 22 18 17 29 30 37 37 46 50 50 42 31 26 26 27 39 49 52 50 57 64 67 71 74 74 65 69 85 77 76 68 57 62 57 54 57 57 54 55 55 54 47 46 45
9 11 12 13 12 13 12 14 16 30 41 48 66 65 54 42 37 33 29 29 42 52 60 59 60 64 67 71 77 69 61 72 75 75 68 69 60 63 66 68 67 63 57 58 54 50 51 55 52
14 16 13 13 14 14 11 15 28 56 48 55 63 61 53 49 48 41 38 41 50 56 63 68 71 76 78 80 65 63 74 77 74 69 68 69 66 70 71 67 59 59 61 56 55 57 58 61 55
20 16 18 15 18 14 14 21 41 53 49 55 57 56 55 56 55 52 51 51 52 58 67 75 80 72 82 75 58 85 88 84 79 74 73 71 72 68 67 63 62 62 56 58 64 65 65 54 43
19 19 19 18 20 26 34 49 54 53 56 64 62 58 54 51 51 50 50 48 50 52 58 74 88 80 91 75 75 91 80 76 66 68 69 61 61 61 60 59 58 58 63 68 69 60 42 28 18
18 19 19 22 26 45 59 59 61 69 67 71 73 64 61 59 56 56 56 57 59 65 76 80 80 79 68 82 87 78 64 65 66 47 49 55 55 59 60 61 65 68 67 53 42 37 31 21 15
24 25 27 31 33 43 51 58 62 65 72 73 73 73 64 67 75 69 68 67 71 72 86 87 80 76 74 71 69 68 62 47 48 48 50 54 58 61 64 68 66 50 38 38 40 41 38 27 18
32 29 29 30 36 38 40 45 59 63 73 80 83 78 83 87 92 87 86 84 83 80 74 72 73 73 59 60 64 50 48 49 52 53 55 60 64 67 67 62 51 44 48 48 49 49 40 35 44
37 30 29 30 29 31 34 27 49 66 72 75 82 91 99 98 87 78 78 61 56 52 44 46 51 52 56 61 55 54 54 57 60 64 68 68 67 58 45 53 47 48 51 53 56 54 43 33 66
37 33 32 31 33 33 34 32 47 65 74 71 73 79 85 86 72 62 53 45 42 44 46 48 49 52 53 54 56 59 61 65 68 68 71 58 46 42 40 44 51 56 62 66 64 62 68 40 46
39 38 42 45 42 38 41 36 38 64 60 63 64 71 76 75 58 51 48 45 43 45 47 50 54 56 58 61 61 64 68 69 69 58 46 46 46 56 62 61 64 69 70 71 72 76 68 57 50
36 39 49 52 56 50 48 49 35 40 49 54 60 64 65 58 52 49 49 50 48 50 53 55 60 62 59 56 59 61 58 47 40 39 44 59 67 64 69 70 72 76 77 75 75 78 69 54 53
40 40 58 52 62 54 46 52 39 46 43 54 56 61 58 55 52 54 56 56 54 56 59 63 62 53 47 40 38 30 24 36 51 61 65 61 47 43 58 74 78 80 78 76 83 72 66 56 53
40 40 43 61 69 59 46 45 40 51 50 57 59 65 63 55 55 58 60 60 63 66 65 58 48 37 31 27 26 35 48 56 60 58 40 32 28 38 66 72 72 61 80 81 90 77 76 64 57
34 39 45 50 52 45 42 51 42 56 53 54 58 60 62 57 60 64 66 67 66 62 54 43 37 33 31 33 38 43 47 54 44 35 30 27 31 35 40 39 52 71 85 86 92 90 84 66 59
40 44 52 48 54 45 51 33 45 45 49 53 53 57 56 58 62 65 68 65 60 52 42 42 39 35 33 36 43 43 42 37 32 28 28 34 40 42 38 41 61 76 86 90 92 84 68 66 61
36 40 43 49 46 65 58 40 38 47 49 52 54 56 55 57 63 67 66 61 53 45 44 43 38 34 33 45 40 38 33 30 27 30 44 50 51 43 40 52 70 85 89 89 87 73 72 66 65
Wind_Speed
4 5 5 4 3 2 2 1 2 7 4 6 7 7 8 9 3 1 13 24 25 24 24 22 20 18 17 16 15 14 14 13 14 13 13 13 14 15 14 14 13 13 13 12 11 11 11 11 11
6 6 5 3 2 2 1 3 10 9 13 11 11 8 8 3 5 5 22 21 27 25 24 22 19 17 16 15 14 13 13 13 13 13 14 14 15 15 14 12 12 12 11 10 9 10 10 11 12
5 6 3 2 3 4 3 13 17 15 4 11 4 10 6 5 3 21 18 23 27 25 24 21 18 17 15 14 14 12 13 13 13 14 14 15 15 14 13 11 11 11 11 12 12 12 13 13 14
7 4 0 1 3 1 1 16 22 11 11 13 4 5 9 4 10 22 21 26 25 24 22 20 18 16 14 13 12 12 13 13 14 14 14 15 15 13 12 11 13 13 14 15 15 16 15 16 16
6 2 1 2 2 1 4 15 11 11 8 12 8 7 4 15 10 19 26 25 23 23 22 19 16 14 13 12 12 12 13 14 15 14 15 15 15 15 14 15 16 17 17 18 18 18 18 18 18
1 1 1 3 3 3 5 11 19 17 10 6 3 7 4 10 11 22 24 23 22 22 21 18 16 14 12 11 12 13 14 15 15 16 16 15 16 15 15 14 15 16 18 17 17 17 17 17 18
1 1 3 7 6 4 5 14 14 13 8 5 8 5 8 13 19 23 22 23 22 20 19 18 16 14 13 12 12 13 15 15 16 16 16 15 15 14 14 13 13 13 13 12 12 13 14 15 16
2 2 2 3 7 6 5 10 13 10 5 9 11 5 8 22 24 24 22 22 20 19 18 16 15 14 13 13 13 14 15 16 14 15 14 13 12 12 11 11 11 10 9 8 8 11 13 14 14
2 2 4 7 12 4 4 0 6 3 6 3 4 8 16 27 24 23 23 23 21 18 17 15 13 14 14 14 15 15 15 14 12 12 11 10 9 8 8 8 7 6 5 5 7 9 10 13 15
2 1 6 8 12 9 7 16 12 5 11 2 6 11 25 25 25 25 25 24 22 20 17 15 14 14 13 14 14 15 14 13 10 9 8 7 6 5 4 5 4 3 4 4 6 9 12 14 18
5 4 3 8 11 17 23 6 8 10 10 8 14 26 26 25 26 26 25 24 22 19 17 15 14 14 13 13 13 14 13 10 7 6 5 4 4 3 2 1 1 1 2 4 6 8 10 15 20
3 6 8 13 17 19 9 13 8 13 2 7 16 30 29 26 26 25 24 23 21 18 16 15 15 14 13 13 11 10 8 6 4 3 2 3 3 3 3 3 2 4 5 6 8 9 13 18 23
4 4 6 7 5 13 12 5 4 8 4 11 22 30 28 27 26 25 23 22 19 17 16 16 14 14 12 10 8 6 5 4 5 5 4 3 4 3 3 4 6 7 7 9 12 15 20 24 26
6 6 5 5 16 14 9 4 5 8 12 19 25 28 28 26 25 24 23 21 19 17 17 15 15 13 11 9 7 7 6 10 10 8 7 5 5 5 6 7 7 8 11 13 17 20 24 27 28
10 6 4 5 8 5 14 5 5 5 18 23 23 24 26 25 24 23 21 20 18 16 16 16 16 13 11 8 3 3 11 16 15 13 11 8 7 8 7 7 8 11 12 17 21 22 24 26 30
3 4 4 2 5 4 4 5 6 4 14 18 18 20 22 20 21 21 20 20 17 18 18 19 16 13 10 9 6 14 20 18 12 14 11 9 7 7 7 9 11 16 20 22 21 25 28 31 33
6 3 2 4 7 5 1 2 9 2 12 11 12 17 19 19 18 20 18 19 16 16 18 19 19 18 12 8 14 26 16 11 9 8 5 5 8 8 13 15 16 19 20 20 23 27 31 30 29
4 4 0 3 4 10 9 4 9 4 9 10 10 13 14 17 16 15 17 18 15 16 19 21 22 19 5 13 17 6 8 6 3 3 12 10 9 13 13 15 16 16 20 24 28 29 26 26 27
5 4 4 3 2 7 5 5 8 6 8 8 8 10 10 10 10 10 11 9 14 13 13 16 17 17 11 5 5 4 7 2 7 4 6 6 10 11 13 12 15 20 25 27 26 26 27 25 25
4 9 4 4 2 5 4 9 8 7 3 4 9 10 11 10 9 9 9 9 9 8 9 12 9 7 7 6 6 4 5 4 4 6 7 9 10 11 13 16 21 24 21 22 24 24 26 25 24
3 6 3 5 6 6 4 3 3 5 6 5 7 10 12 15 18 19 17 17 18 16 15 13 12 11 9 7 7 8 4 5 7 9 11 11 12 15 19 23 24 20 21 24 26 26 23 22 19
4 1 5 8 2 2 3 2 1 3 4 5 9 14 17 22 21 22 24 24 23 21 20 18 15 13 11 10 7 5 7 9 11 12 11 11 14 18 18 20 21 21 22 26 26 27 23 20 14
4 3 4 3 4 3 1 2 1 4 6 9 11 11 14 18 23 26 26 24 23 19 17 15 13 13 9 6 6 8 10 11 10 9 9 13 17 18 18 20 22 23 23 23 23 24 24 17 14
9 5 6 4 2 2 1 3 4 7 10 13 13 11 14 20 24 24 23 21 20 18 17 15 12 10 8 7 8 9 9 8 8 10 12 14 16 18 20 20 22 23 23 24 24 28 17 15 13
3 4 1 1 0 3 1 3 5 8 7 19 19 17 18 22 24 24 23 22 21 19 16 13 11 8 6 5 7 8 8 8 10 13 15 16 19 20 21 23 22 22 22 24 26 25 16 13 13
3 2 4 4 3 1 1 5 1 3 11 21 22 21 21 23 23 22 20 18 16 16 15 13 9 5 4 5 5 6 8 10 11 13 16 17 19 21 22 22 22 22 24 23 24 21 15 15 15
3 2 2 6 2 0 2 3 5 2 7 14 19 20 22 24 24 21 19 17 16 16 14 9 5 2 2 3 5 6 7 9 11 13 16 21 23 21 20 20 23 24 25 24 24 22 15 16 16
1 7 3 2 3 3 2 4 6 4 11 13 17 23 23 24 23 21 19 18 18 14 10 6 1 2 4 6 7 6 8 10 14 19 23 23 20 20 22 25 25 26 27 27 22 27 17 14 18
3 2 5 4 1 2 2 4 4 9 14 17 23 24 27 26 23 22 21 19 16 11 7 3 2 4 6 8 8 9 10 14 20 23 21 20 21 24 26 24 24 23 24 24 28 15 12 17 19
1 3 4 3 4 1 0 5 1 4 10 16 19 22 21 21 22 22 20 16 12 9 5 2 4 6 10 7 9 11 15 20 22 20 20 22 26 28 26 23 19 17 21 27 17 11 14 17 20
Wind_Direction
253 250 217 210 202 44 332 270 132 110 82 78 73 86 90 51 51 31 155 154 159 157 158 157 161 159 156 152 146 140 132 125 121 117 116 107 104 102 98 91 86 82 76 69 60 54 46 40 34
226 208 214 218 125 159 193 304 99 102 127 94 67 61 54 66 68 99 155 157 165 162 158 158 163 158 158 154 142 137 130 122 116 113 106 106 103 98 93 88 80 73 65 60 56 51 45 34 31
192 210 253 118 116 184 136 120 114 108 86 83 76 82 50 321 116 158 165 162 170 165 158 158 160 161 157 149 141 134 123 118 114 110 109 107 103 99 94 87 74 63 57 54 52 52 46 36 25
173 210 59 165 165 206 259 145 118 105 8 20 69 81 142 223 156 179 174 165 168 161 158 157 162 161 153 149 141 131 124 118 115 112 111 108 105 99 91 84 81 76 72 68 64 58 51 44 35
192 228 112 104 127 208 218 137 129 104 118 166 140 169 103 140 154 170 160 162 167 161 159 160 161 156 153 151 141 134 125 125 122 120 115 112 108 105 100 94 83 79 75 73 71 66 56 50 43
199 97 121 92 52 46 73 123 87 105 224 182 183 100 110 154 157 157 155 162 168 163 160 160 160 157 159 156 147 138 135 131 128 124 122 120 116 107 102 92 91 86 81 77 73 70 63 53 45
216 152 135 111 87 37 82 104 118 170 165 206 161 110 144 157 159 161 163 167 169 166 162 163 159 161 164 159 149 144 139 135 130 128 126 119 114 107 105 101 99 96 93 86 77 68 60 51 42
225 111 115 68 59 53 134 142 146 140 211 151 161 166 160 163 164 167 166 167 168 169 165 161 164 168 167 158 153 148 143 139 132 128 123 124 115 111 106 108 109 108 90 72 58 49 40 36 32
213 96 152 151 154 134 296 86 140 133 169 157 187 166 166 158 164 167 167 168 170 167 165 168 170 168 165 161 154 149 145 142 135 135 130 125 123 121 117 114 110 101 82 48 38 32 22 19 16
166 150 209 168 143 154 53 257 169 136 181 160 143 149 158 161 166 171 171 169 166 169 168 166 165 165 163 158 154 150 149 149 141 141 144 136 136 135 124 117 118 77 46 24 18 8 6 9 4
169 210 167 180 168 143 187 149 142 150 202 195 169 153 163 167 171 172 169 167 165 168 167 161 162 161 160 158 156 154 151 141 142 155 156 150 160 173 162 146 129 36 356 348 347 347 349 346 343
201 235 159 195 190 185 169 152 155 182 168 229 174 162 168 173 173 172 170 173 172 172 163 161 159 156 155 157 153 157 151 151 145 166 165 185 188 199 204 216 266 310 315 316 324 330 330 332 333
198 210 212 225 183 165 161 169 171 187 284 157 168 170 176 177 177 179 180 181 177 178 171 168 165 163 164 161 160 169 186 206 220 227 225 213 209 226 246 264 286 297 307 312 314 319 325 329 331
204 153 138 163 166 158 162 123 133 190 158 164 174 180 182 183 182 184 189 190 189 186 183 177 177 181 180 182 195 212 245 248 249 252 244 248 250 254 260 266 287 304 307 310 319 323 328 331 331
139 89 104 87 143 117 137 57 22 298 171 169 175 181 183 189 192 196 199 203 204 202 195 193 193 193 197 204 244 330 317 279 258 261 253 255 259 264 272 289 297 296 308 320 317 320 324 328 329
75 78 106 4 101 117 155 169 8 142 171 166 169 179 188 191 204 210 214 220 221 218 208 207 196 197 193 154 30 302 281 281 268 257 262 269 271 271 280 291 298 305 309 310 319 321 322 322 324
20 138 125 127 44 129 75 124 335 103 171 145 158 178 192 199 209 218 225 234 237 235 228 216 203 200 181 185 273 300 277 282 281 281 268 293 299 288 295 291 294 306 308 317 323 325 322 321 321
161 126 113 139 34 67 80 56 351 11 149 137 150 163 182 202 212 224 232 238 236 235 238 230 198 191 335 271 273 262 264 265 178 329 311 297 269 297 296 297 310 313 320 322 321 323 325 324 321
134 126 128 44 56 76 78 74 25 35 108 134 155 164 174 189 204 218 229 223 217 216 222 230 233 234 269 254 200 213 148 234 287 260 277 274 285 292 298 313 317 319 322 325 330 327 325 321 320
104 128 86 102 63 94 137 72 54 45 67 174 167 171 177 170 162 177 189 192 194 211 212 217 211 196 114 98 112 169 216 216 243 275 277 286 293 303 317 317 321 325 328 327 329 331 334 329 325
53 113 140 122 114 84 146 98 51 46 77 114 149 158 150 149 136 126 125 122 127 134 141 144 137 129 126 135 185 197 219 266 271 281 287 293 307 316 314 313 320 328 332 333 333 329 329 326 322
93 34 117 125 111 141 341 244 71 113 120 136 137 135 133 135 131 131 134 133 134 132 131 132 135 144 160 189 202 240 277 292 294 296 297 303 306 306 316 322 329 329 328 330 332 333 326 321 319
126 92 92 96 89 138 109 237 71 155 181 182 175 155 145 145 141 142 144 140 140 138 137 138 152 166 176 207 253 277 284 289 294 298 304 307 314 320 327 328 323 318 315 316 325 329 323 316 318
148 85 59 69 107 193 108 230 201 198 205 186 190 177 163 157 154 152 152 152 152 157 163 167 181 187 198 236 263 278 288 298 307 310 314 317 320 319 317 314 309 303 308 314 319 323 311 315 321
90 82 26 15 350 232 12 202 261 213 198 187 186 184 173 168 167 167 170 171 172 174 178 179 190 196 212 257 285 298 312 319 325 326 321 313 307 307 302 302 305 302 303 312 311 320 308 312 315
64 141 160 203 205 244 166 235 217 274 197 187 184 180 179 180 183 184 182 181 182 185 184 186 187 207 266 298 306 318 327 336 324 303 298 302 302 305 303 303 305 304 302 301 315 313 304 306 312
158 123 126 105 39 298 255 270 251 79 155 173 173 180 190 192 195 194 192 192 195 185 177 180 214 265 342 343 342 328 302 295 299 309 315 317 317 312 309 310 307 305 298 293 306 295 287 295 301
141 137 124 41 159 247 278 276 251 202 191 182 182 190 194 196 196 197 198 193 180 175 188 201 189 31 19 6 350 312 313 313 319 319 318 319 321 320 316 312 301 295 293 288 299 295 280 284 289
142 112 65 103 99 173 284 258 219 230 195 195 197 196 197 200 200 199 187 178 178 190 189 168 88 19 5 350 326 316 314 317 319 320 325 326 325 319 315 300 291 292 291 299 301 282 277 284 290
118 142 141 130 182 79 105 274 284 290 221 210 205 199 201 202 194 186 180 181 189 192 188 165 340 337 323 315 308 315 319 319 320 323 328 326 322 323 317 306 303 291 294 298 285 268 282 293 293